Location: Long Island Community Building
(39.9491°N, 99.5338°W)
Time: 18:12:07
(UTC+00:00)

Cosmos 1340 - Pass Details

Date: 06 December 2019
Orbit: 501 x 506 km, 81.2° (Epoch: 29 January)

Event Time Altitude Azimuth Distance (km) Brightness Sun altitude
Rises 23:42:45 0° 350° (N) 2,616 6.1 -5.9°
Reaches altitude 10° 23:44:53 10° 351° (N) 1,727 5.2 -6.3°
Maximum altitude 23:48:41 88° 76° (ENE) 512 2.6 -7.0°
Drops below altitude 10° 23:52:27 10° 171° (S) 1,714 5.5 -7.6°
Sets 23:54:34 0° 172° (S) 2,594 6.5 -8.0°
